EA4DB Madrid ES current weather conditions

sailwx.info

Wind from 225 at 3 knots gusting 6

Air temperature 16.7° C
Dewpoint 9.1° C

Last reported at 2014-Nov-26 14:46 UTC.
Time now 2014-Nov-26 15:07 UTC

Location: N 40°25' W 003°39'.
View on Google Maps.

See reports from other nearby stations

  
Tides and Currents Weather Stations Pressure Air Temp Water Temp Dewpoint Dewpoint Depression Visibility Wind Speed Wind Dir Waves Ship Positions
date/time (UTC)wind fromknots sea level pressurealtimeterstation pressurevisibilityair tempwater tempwave heightnotes
2014-Nov-26 14:46 225 3 gusting 6 16.7
2014-Nov-26 14:31 225 1 gusting 6 15.0
2014-Nov-26 14:16 180 1 gusting 7 15.6
2014-Nov-26 14:01 113 0 gusting 3 16.1
2014-Nov-26 13:56 225 0 gusting 6 15.0
2014-Nov-26 13:51 180 1 gusting 9 13.9
2014-Nov-26 13:46 135 1 gusting 8 13.9
2014-Nov-26 13:31 225 0 gusting 8 13.9
2014-Nov-26 13:16 270 1 gusting 8 14.4
2014-Nov-26 13:01 248 1 gusting 5 14.4
2014-Nov-26 12:56 293 6 gusting 13 13.9
2014-Nov-26 12:51 315 2 gusting 10 13.9
2014-Nov-26 12:46 270 2 gusting 9 13.3
2014-Nov-26 12:31 225 3 gusting 9 13.3
2014-Nov-26 12:16 270 0 gusting 6 13.3
2014-Nov-26 12:01 225 1 gusting 9 13.9
2014-Nov-26 11:46 270 3 gusting 9 13.3
2014-Nov-26 11:31 225 4 gusting 6 13.3
2014-Nov-26 11:16 270 2 gusting 10 13.3
2014-Nov-26 11:01 180 1 gusting 6 13.9
2014-Nov-26 10:56 270 3 gusting 6 14.4
2014-Nov-26 10:51 180 4 gusting 6 15.0
2014-Nov-26 10:46 225 0 gusting 6 14.4
2014-Nov-26 10:31 225 3 gusting 6 15.0
2014-Nov-26 10:16 225 2 gusting 8 14.4
2014-Nov-26 10:01 225 6 gusting 12 13.3
2014-Nov-26 09:56 180 4 gusting 8 13.9
2014-Nov-26 09:51 225 3 gusting 9 14.4
2014-Nov-26 09:46 135 3 gusting 8 13.9
2014-Nov-26 09:31 225 1 gusting 6 13.3
2014-Nov-26 09:16 180 4 gusting 6 12.8
2014-Nov-26 09:01 180 1 gusting 6 12.8
2014-Nov-26 08:56 225 1 gusting 6 12.8
2014-Nov-26 08:51 248 2 gusting 4 12.8
2014-Nov-26 08:46 225 3 gusting 6 12.8
2014-Nov-26 08:31 270 1 gusting 5 12.2
2014-Nov-26 08:16 315 3 gusting 9 12.2
2014-Nov-26 08:01 225 2 gusting 6 12.2
2014-Nov-26 07:56 225 2 gusting 6 12.2
2014-Nov-26 07:51 225 12.2
2014-Nov-26 07:46 225 1 gusting 6 12.2
2014-Nov-26 07:31 180 3 gusting 6 11.7
2014-Nov-26 07:16 180 1 gusting 5 11.7
2014-Nov-26 07:01 225 3 gusting 8 11.7
2014-Nov-26 06:56 225 1 gusting 6 12.2
2014-Nov-26 06:51 225 2 gusting 6 11.7
2014-Nov-26 06:46 180 4 gusting 7 12.2
2014-Nov-26 06:31 225 5 gusting 8 11.7
2014-Nov-26 06:16 270 1 gusting 6 12.2
2014-Nov-26 06:01 180 1 gusting 6 12.2
2014-Nov-26 05:56 270 1 gusting 6 11.7
2014-Nov-26 05:51 180 1 gusting 5 12.2
2014-Nov-26 05:46 225 1 gusting 6 11.7
2014-Nov-26 05:31 225 2 gusting 5 12.2
2014-Nov-26 05:16 225 1 gusting 6 12.2
2014-Nov-26 05:01 270 3 gusting 6 12.8
2014-Nov-26 04:56 225 2 gusting 6 12.2
2014-Nov-26 04:51 225 4 gusting 8 12.2
2014-Nov-26 04:46 270 4 gusting 6 12.8
2014-Nov-26 04:41 225 4 gusting 10 12.8
2014-Nov-26 04:36 225 1 gusting 7 12.2
2014-Nov-26 04:31 270 1 gusting 6 12.2
2014-Nov-26 04:26 180 12.2
2014-Nov-26 04:21 270 1 gusting 5 12.8
2014-Nov-26 04:16 225 1 gusting 4 12.8
2014-Nov-26 04:11 225 1 gusting 3 12.2
2014-Nov-26 04:06 225 1 gusting 3 12.2
2014-Nov-26 04:01 225 1 gusting 5 12.8
2014-Nov-26 03:56 270 3 gusting 6 12.2
2014-Nov-26 03:51 270 1 gusting 4 12.8
2014-Nov-26 03:46 270 1 gusting 9 12.8
2014-Nov-26 03:31 225 1 gusting 4 12.8
2014-Nov-26 03:16 225 0 gusting 3 12.8
2014-Nov-26 03:01 270 0 gusting 6 12.8
2014-Nov-26 02:56 248 12.8
2014-Nov-26 02:51 270 12.8
2014-Nov-26 02:46 270 0 gusting 1 12.8
2014-Nov-26 02:31 270 13.3
2014-Nov-26 02:16 270 1 gusting 3 12.8
2014-Nov-26 02:01 270 1 gusting 9 13.3
2014-Nov-26 01:56 225 3 gusting 6 12.8
2014-Nov-26 01:51 270 1 gusting 6 12.8
2014-Nov-26 01:46 180 2 gusting 4 12.8
2014-Nov-26 01:31 225 1 gusting 5 12.8
2014-Nov-26 01:16 270 1 gusting 6 12.8
2014-Nov-26 01:01 225 1 gusting 6 13.3
2014-Nov-26 00:56 225 1 gusting 3 13.3
2014-Nov-26 00:51 225 0 gusting 4 12.8
2014-Nov-26 00:46 180 0 gusting 2 13.3
2014-Nov-26 00:31 225 3 gusting 6 12.8
2014-Nov-26 00:16 225 1 gusting 5 12.8
2014-Nov-26 00:01 270 2 gusting 8 12.8
2014-Nov-25 23:56 225 3 gusting 5 12.8
2014-Nov-25 23:51 315 1 gusting 9 12.8
2014-Nov-25 23:46 225 3 gusting 6 12.8
2014-Nov-25 23:41 315 0 gusting 6 12.8
2014-Nov-25 23:36 248 1 gusting 3 13.3
2014-Nov-25 23:31 270 1 gusting 4 12.8
2014-Nov-25 23:26 180 1 gusting 3 13.3
2014-Nov-25 23:21 180 13.3
2014-Nov-25 23:16 225 0 gusting 3 13.3
2014-Nov-25 23:11 225 2 gusting 5 13.3
2014-Nov-25 23:06 270 2 gusting 6 13.3
2014-Nov-25 23:01 270 13.3
2014-Nov-25 22:56 270 1 gusting 4 13.3
2014-Nov-25 22:51 225 0 gusting 4 13.3
2014-Nov-25 22:46 315 1 gusting 5 13.3
2014-Nov-25 22:31 270 1 gusting 5 13.3
2014-Nov-25 22:16 225 1 gusting 4 13.3
2014-Nov-25 22:01 270 1 gusting 4 13.3
2014-Nov-25 21:56 225 13.3
2014-Nov-25 21:51 270 1 gusting 4 13.3
2014-Nov-25 21:46 270 1 gusting 3 13.3
2014-Nov-25 21:31 315 4 gusting 8 13.3
2014-Nov-25 21:16 225 1 gusting 8 13.9
2014-Nov-25 21:01 225 2 gusting 3 13.9
2014-Nov-25 20:56 225 0 gusting 6 13.3
2014-Nov-25 20:51 180 0 gusting 3 13.3
2014-Nov-25 20:46 270 13.3
2014-Nov-25 20:31 180 1 gusting 5 13.3
2014-Nov-25 20:16 180 1 gusting 4 13.9
2014-Nov-25 20:01 270 0 gusting 3 13.9
2014-Nov-25 19:56 225 1 gusting 5 13.9
2014-Nov-25 19:51 225 13.9
2014-Nov-25 19:46 180 1 gusting 3 13.3
2014-Nov-25 19:41 225 1 gusting 3 12.8
2014-Nov-25 19:36 225 2 gusting 5 13.9
2014-Nov-25 19:31 180 1 gusting 4 13.9
2014-Nov-25 19:26 180 2 gusting 6 13.3
2014-Nov-25 19:21 180 13.9
2014-Nov-25 19:16 180 1 gusting 5 13.3
2014-Nov-25 19:11 180 12.8
2014-Nov-25 19:06 180 2 gusting 3 12.8
2014-Nov-25 19:01 180 2 gusting 6 12.8
2014-Nov-25 18:56 225 2 gusting 5 13.9
2014-Nov-25 18:51 180 3 gusting 6 13.3
2014-Nov-25 18:46 180 6 gusting 10 13.3
2014-Nov-25 18:31 225 2 gusting 6 13.9
2014-Nov-25 18:16 225 1 gusting 6 13.3
2014-Nov-25 18:01 270 0 gusting 4 15.0
2014-Nov-25 17:56 180 2 gusting 3 13.9
2014-Nov-25 17:51 225 14.4
2014-Nov-25 17:46 225 15.0
2014-Nov-25 17:41 180 1 gusting 6 14.4
2014-Nov-25 17:36 180 3 gusting 6 13.9
2014-Nov-25 17:31 225 2 gusting 4 14.4
2014-Nov-25 17:26 225 1 gusting 6 14.4
2014-Nov-25 17:21 13.9
2014-Nov-25 17:16 13.3
2014-Nov-25 17:11 135 0 gusting 3 13.3
2014-Nov-25 17:06 225 1 gusting 3 13.9
2014-Nov-25 17:01 225 12.8
2014-Nov-25 16:56 090 13.3
2014-Nov-25 16:51 225 1 gusting 6 12.8
2014-Nov-25 16:46 315 5 gusting 14 13.9
2014-Nov-25 16:41 225 9 gusting 16 15.0
2014-Nov-25 16:36 315 3 gusting 6 16.7
2014-Nov-25 16:31 180 3 gusting 6 16.7
2014-Nov-25 16:26 225 1 gusting 4 16.1
2014-Nov-25 16:21 225 4 gusting 6 16.7
2014-Nov-25 16:16 225 3 gusting 6 16.7
2014-Nov-25 16:11 270 4 gusting 9 16.7
2014-Nov-25 16:06 180 1 gusting 3 16.7
2014-Nov-25 16:01 180 1 gusting 6 16.7
2014-Nov-25 15:56 16.7
2014-Nov-25 15:51 270 1 gusting 6 16.7
2014-Nov-25 15:46 180 4 gusting 8 17.2
2014-Nov-25 15:41 203 4 gusting 9 17.8
2014-Nov-25 15:36 180 2 gusting 6 17.2
2014-Nov-25 15:31 045 1 gusting 4 17.8
2014-Nov-25 15:26 225 2 gusting 4 18.3
2014-Nov-25 15:21 180 2 gusting 4 18.9
2014-Nov-25 15:16 225 1 gusting 7 18.3
2014-Nov-25 15:11 180 1 gusting 6 19.4
2014-Nov-25 15:06 225 2 gusting 5 20.0
2014-Nov-25 15:01 225 0 gusting 3 20.6
2014-Nov-25 14:56 135 1 gusting 4 20.6
2014-Nov-25 14:51 180 1 gusting 6 19.4
2014-Nov-25 14:46 090 1 gusting 6 18.9
2014-Nov-25 14:31 225 2 gusting 6 18.3
2014-Nov-25 14:16 180 5 gusting 9 18.3
2014-Nov-25 14:01 225 3 gusting 9 19.4
2014-Nov-25 13:56 315 3 gusting 10 19.4
2014-Nov-25 13:51 180 6 gusting 9 18.9
2014-Nov-25 13:46 225 2 gusting 8 18.3
2014-Nov-25 13:31 315 17.8
2014-Nov-25 13:16 225 1 gusting 3 17.8
2014-Nov-25 13:01 180 3 gusting 8 17.8
2014-Nov-25 12:56 180 2 gusting 5 18.3
2014-Nov-25 12:51 225 1 gusting 4 18.3
2014-Nov-25 12:46 225 1 gusting 4 18.3
2014-Nov-25 12:31 225 2 gusting 6 17.8
2014-Nov-25 12:16 225 4 gusting 6 19.4
2014-Nov-25 12:01 180 3 gusting 5 20.0
2014-Nov-25 11:56 225 1 gusting 3 20.0
2014-Nov-25 11:51 225 1 gusting 4 20.0
2014-Nov-25 11:46 180 1 gusting 3 19.4
2014-Nov-25 11:31 225 0 gusting 5 18.9
2014-Nov-25 11:16 180 1 gusting 6 18.9
2014-Nov-25 11:01 225 1 gusting 5 19.4
2014-Nov-25 10:56 270 1 gusting 3 19.4
2014-Nov-25 10:51 225 1 gusting 3 20.0
2014-Nov-25 10:46 135 19.4
2014-Nov-25 10:31 135 1 gusting 3 17.8
2014-Nov-25 10:16 180 17.8
2014-Nov-25 10:01 180 0 gusting 3 17.2
2014-Nov-25 09:56 180 0 gusting 3 16.7
2014-Nov-25 09:51 180 0 gusting 3 17.2
2014-Nov-25 09:46 180 16.7
2014-Nov-25 09:31 225 18.9
2014-Nov-25 09:16 225 16.7
2014-Nov-25 09:01 135 17.2
2014-Nov-25 08:56 045 16.7
2014-Nov-25 08:51 090 16.1
2014-Nov-25 08:46 225 15.6
2014-Nov-25 08:31 045 13.9
2014-Nov-25 08:16 13.3
2014-Nov-25 08:01 135 12.8
2014-Nov-25 07:56 11.7
2014-Nov-25 07:51 11.7
2014-Nov-25 07:46 045 11.7
2014-Nov-25 07:31 045 0 gusting 1 11.1
2014-Nov-25 07:17 315 10.6
2014-Nov-25 07:01 10.6
2014-Nov-25 06:56 10.6
2014-Nov-25 06:51 090 0 gusting 1 10.6
2014-Nov-25 06:46 11.1
2014-Nov-25 05:46 11.7
2014-Nov-25 05:31 135 12.2
2014-Nov-25 05:16 180 0 gusting 1 12.2
2014-Nov-25 04:26 225 11.7
2014-Nov-25 04:16 045 12.8
2014-Nov-25 04:01 225 12.8
2014-Nov-25 03:56 225 12.8
2014-Nov-25 03:51 225 12.8
2014-Nov-25 03:46 203 13.3
2014-Nov-25 03:31 180 13.3
2014-Nov-25 03:16 180 12.8
2014-Nov-25 03:01 045 13.3
2014-Nov-25 02:56 270 13.3
2014-Nov-25 02:51 225 13.9
2014-Nov-25 02:46 270 13.3
2014-Nov-25 02:31 225 12.8
2014-Nov-25 02:16 090 13.3
2014-Nov-25 02:01 090 12.8
2014-Nov-25 01:56 090 12.8
2014-Nov-25 01:51 180 13.3
2014-Nov-25 01:46 045 12.8
2014-Nov-25 01:31 045 13.3
2014-Nov-25 01:16 090 13.3
2014-Nov-25 01:01 113 13.9
2014-Nov-25 00:46 045 13.9
2014-Nov-25 00:31 090 14.4
2014-Nov-25 00:16 045 14.4
2014-Nov-25 00:01 090 14.4
2014-Nov-24 23:56 045 14.4
2014-Nov-24 23:51 14.4
2014-Nov-24 23:46 045 14.4
2014-Nov-24 23:31 090 15.0
2014-Nov-24 23:16 090 15.0
2014-Nov-24 23:01 315 15.0
2014-Nov-24 22:46 315 15.0
2014-Nov-24 22:31 315 14.4
2014-Nov-24 22:16 315 15.0
2014-Nov-24 22:01 315 15.0
2014-Nov-24 21:56 270 15.0
2014-Nov-24 21:51 225 15.6
2014-Nov-24 21:46 225 15.0
2014-Nov-24 21:31 225 15.6
2014-Nov-24 21:16 225 15.6
2014-Nov-24 21:01 180 15.6
2014-Nov-24 20:56 180 16.1
2014-Nov-24 20:51 270 16.1
2014-Nov-24 20:41 225 16.1
2014-Nov-24 20:31 225 16.7
2014-Nov-24 20:16 225 16.7
2014-Nov-24 20:01 225 16.7
2014-Nov-24 19:56 225 17.2
2014-Nov-24 19:51 270 17.2
2014-Nov-24 19:46 225 17.2
2014-Nov-24 19:31 270 17.2
2014-Nov-24 19:16 248 17.8
2014-Nov-24 19:01 180 0 gusting 2 17.8
2014-Nov-24 18:56 225 1 gusting 3 17.8
2014-Nov-24 18:51 225 0 gusting 3 17.8
2014-Nov-24 18:46 225 1 gusting 3 17.2
2014-Nov-24 18:31 225 1 gusting 3 17.8
2014-Nov-24 18:16 180 0 gusting 2 17.8
2014-Nov-24 18:01 180 17.8
2014-Nov-24 17:56 180 17.2
2014-Nov-24 17:51 180 17.8
2014-Nov-24 17:46 135 17.2
2014-Nov-24 17:31 180 0 gusting 1 17.8
2014-Nov-24 17:16 180 1 gusting 2 17.8
2014-Nov-24 17:01 18.3
2014-Nov-24 16:56 315 18.9
2014-Nov-24 16:51 315 19.4
2014-Nov-24 16:46 270 19.4
2014-Nov-24 16:31 270 19.4
2014-Nov-24 16:16 270 19.4
2014-Nov-24 16:01 315 19.4
2014-Nov-24 15:56 315 18.9
2014-Nov-24 15:51 315 1 gusting 2 19.4
2014-Nov-24 15:46 19.4
2014-Nov-24 15:31 19.4
2014-Nov-24 15:16 315 0 gusting 1 20.6
2014-Nov-24 15:01 21.1